Time,TemperatureF,DewpointF,PressureIn,WindDirection,WindDirectionDegrees,WindSpeedMPH,WindSpeedGustMPH,Humidity,HourlyPrecipIn,Conditions,Clouds,dailyrainin,SoftwareType,DateUTC
2013-01-14 00:03:00,15.0,12.0,-100.00,NNE,25,0.0,0.0,88,-99.99,,,-99.99,,2013-01-14 06:03:00,
2013-01-14 00:12:00,15.0,12.0,-100.00,East,100,0.0,1.0,87,-99.99,,,-99.99,,2013-01-14 06:12:00,
2013-01-14 00:22:00,15.0,12.0,-100.00,East,100,0.0,1.0,87,-99.99,,,-99.99,,2013-01-14 06:22:00,
2013-01-14 00:33:00,14.0,11.0,-100.00,SE,130,0.0,0.0,87,-99.99,,,-99.99,,2013-01-14 06:33:00,
2013-01-14 00:43:00,14.0,11.0,-100.00,NE,50,0.0,0.0,88,-99.99,,,-99.99,,2013-01-14 06:43:00,
2013-01-14 00:52:00,14.0,11.0,-100.00,NE,50,0.0,0.0,88,-99.99,,,-99.99,,2013-01-14 06:52:00,
2013-01-14 01:02:00,14.0,11.0,-100.00,SSW,210,0.0,1.0,87,-99.99,,,-99.99,,2013-01-14 07:02:00,
2013-01-14 01:12:00,14.0,11.0,-100.00,SE,140,0.0,1.0,87,-99.99,,,-99.99,,2013-01-14 07:12:00,
2013-01-14 01:22:00,14.0,11.0,-100.00,SE,140,0.0,1.0,87,-99.99,,,-99.99,,2013-01-14 07:22:00,
2013-01-14 01:33:00,13.0,10.0,-100.00,WNW,295,0.0,0.0,87,-99.99,,,-99.99,,2013-01-14 07:33:00,
2013-01-14 01:42:00,13.0,10.0,-100.00,WNW,295,0.0,0.0,88,-99.99,,,-99.99,,2013-01-14 07:42:00,
2013-01-14 01:52:00,13.0,10.0,-100.00,WNW,295,0.0,0.0,88,-99.99,,,-99.99,,2013-01-14 07:52:00,
2013-01-14 02:02:00,13.0,10.0,-100.00,ESE,115,0.0,0.0,87,-99.99,,,-99.99,,2013-01-14 08:02:00,
2013-01-14 02:12:00,13.0,10.0,-100.00,North,0,0.0,0.0,87,-99.99,,,-99.99,,2013-01-14 08:12:00,
2013-01-14 02:22:00,13.0,10.0,-100.00,North,0,0.0,0.0,87,-99.99,,,-99.99,,2013-01-14 08:22:00,
2013-01-14 02:32:00,13.0,10.0,-100.00,SE,130,0.0,0.0,87,-99.99,,,-99.99,,2013-01-14 08:32:00,
2013-01-14 02:42:00,13.0,10.0,-100.00,ENE,60,0.0,0.0,86,-99.99,,,-99.99,,2013-01-14 08:42:00,
2013-01-14 02:52:00,13.0,10.0,-100.00,ENE,60,0.0,0.0,86,-99.99,,,-99.99,,2013-01-14 08:52:00,
2013-01-14 03:02:00,12.0,9.0,-100.00,SSE,160,0.0,0.0,86,-99.99,,,-99.99,,2013-01-14 09:02:00,
2013-01-14 03:12:00,12.0,8.0,-100.00,SSW,200,0.0,0.0,86,-99.99,,,-99.99,,2013-01-14 09:12:00,
2013-01-14 03:22:00,12.0,8.0,-100.00,SSW,200,0.0,0.0,86,-99.99,,,-99.99,,2013-01-14 09:22:00,
2013-01-14 03:33:00,12.0,8.0,-100.00,South,170,0.0,1.0,86,-99.99,,,-99.99,,2013-01-14 09:33:00,
2013-01-14 03:43:00,12.0,8.0,-100.00,South,190,0.0,1.0,86,-99.99,,,-99.99,,2013-01-14 09:43:00,
2013-01-14 03:52:00,12.0,8.0,-100.00,South,190,0.0,1.0,86,-99.99,,,-99.99,,2013-01-14 09:52:00,
2013-01-14 04:02:00,11.0,8.0,-100.00,SE,140,0.0,0.0,86,-99.99,,,-99.99,,2013-01-14 10:02:00,
2013-01-14 04:12:00,11.0,8.0,-100.00,SE,135,0.0,0.0,86,-99.99,,,-99.99,,2013-01-14 10:12:00,
2013-01-14 04:22:00,11.0,8.0,-100.00,SE,135,0.0,0.0,86,-99.99,,,-99.99,,2013-01-14 10:22:00,
2013-01-14 04:32:00,11.0,8.0,-100.00,East,95,0.0,0.0,86,-99.99,,,-99.99,,2013-01-14 10:32:00,
2013-01-14 04:42:00,11.0,8.0,-100.00,East,95,0.0,0.0,87,-99.99,,,-99.99,,2013-01-14 10:42:00,
2013-01-14 04:52:00,11.0,8.0,-100.00,East,95,0.0,0.0,87,-99.99,,,-99.99,,2013-01-14 10:52:00,
2013-01-14 05:02:00,11.0,7.0,-100.00,SE,145,0.0,0.0,86,-99.99,,,-99.99,,2013-01-14 11:02:00,
2013-01-14 05:12:00,11.0,7.0,-100.00,South,170,0.0,0.0,86,-99.99,,,-99.99,,2013-01-14 11:12:00,
2013-01-14 05:22:00,11.0,7.0,-100.00,South,170,0.0,0.0,86,-99.99,,,-99.99,,2013-01-14 11:22:00,
2013-01-14 05:32:00,10.0,7.0,-100.00,SE,145,0.0,0.0,86,-99.99,,,-99.99,,2013-01-14 11:32:00,
2013-01-14 05:42:00,10.0,7.0,-100.00,South,185,0.0,0.0,86,-99.99,,,-99.99,,2013-01-14 11:42:00,
2013-01-14 05:53:00,10.0,7.0,-100.00,South,185,0.0,0.0,86,-99.99,,,-99.99,,2013-01-14 11:53:00,
2013-01-14 06:03:00,10.0,7.0,-100.00,NW,310,0.0,0.0,86,-99.99,,,-99.99,,2013-01-14 12:03:00,
2013-01-14 06:12:00,11.0,8.0,-100.00,NE,40,0.0,1.0,88,-99.99,,,-99.99,,2013-01-14 12:12:00,
2013-01-14 06:23:00,11.0,8.0,-100.00,NE,40,0.0,1.0,88,-99.99,,,-99.99,,2013-01-14 12:23:00,
2013-01-14 06:33:00,10.0,6.0,-100.00,SSE,155,0.0,0.0,85,-99.99,,,-99.99,,2013-01-14 12:33:00,
2013-01-14 06:43:00,10.0,6.0,-100.00,SSE,155,0.0,0.0,85,-99.99,,,-99.99,,2013-01-14 12:43:00,
2013-01-14 06:53:00,10.0,6.0,-100.00,SSE,155,0.0,0.0,85,-99.99,,,-99.99,,2013-01-14 12:53:00,
2013-01-14 07:03:00,10.0,6.0,-100.00,ESE,120,0.0,0.0,85,-99.99,,,-99.99,,2013-01-14 13:03:00,
2013-01-14 07:12:00,10.0,6.0,-100.00,NW,305,0.0,0.0,85,-99.99,,,-99.99,,2013-01-14 13:12:00,
2013-01-14 07:23:00,10.0,6.0,-100.00,NW,305,0.0,0.0,85,-99.99,,,-99.99,,2013-01-14 13:23:00,
2013-01-14 07:33:00,10.0,7.0,-100.00,SSW,210,0.0,1.0,86,-99.99,,,-99.99,,2013-01-14 13:33:00,
2013-01-14 07:43:00,11.0,7.0,-100.00,NNE,25,0.0,1.0,85,-99.99,,,-99.99,,2013-01-14 13:43:00,
2013-01-14 07:53:00,11.0,7.0,-100.00,NNE,25,0.0,1.0,85,-99.99,,,-99.99,,2013-01-14 13:53:00,
2013-01-14 08:00:00,13.0,10.0,-100.00,North,10,0.0,0.0,86,-99.99,,,-99.99,,2013-01-14 14:00:00,
2013-01-14 08:03:00,11.0,8.0,-100.00,South,175,0.0,1.0,86,-99.99,,,-99.99,,2013-01-14 14:03:00,
2013-01-14 08:13:00,11.0,7.0,-100.00,ESE,110,0.0,1.0,85,-99.99,,,-99.99,,2013-01-14 14:13:00,
2013-01-14 08:22:00,11.0,7.0,-100.00,ESE,110,0.0,1.0,85,-99.99,,,-99.99,,2013-01-14 14:22:00,
2013-01-14 08:33:00,13.0,9.0,-100.00,NNW,340,0.0,1.0,86,-99.99,,,-99.99,,2013-01-14 14:33:00,
2013-01-14 08:43:00,13.0,10.0,-100.00,North,10,0.0,0.0,86,-99.99,,,-99.99,,2013-01-14 14:43:00,
2013-01-14 08:53:00,13.0,10.0,-100.00,North,10,0.0,0.0,86,-99.99,,,-99.99,,2013-01-14 14:53:00,
2013-01-14 09:12:00,15.0,11.0,-100.00,WNW,300,0.0,1.0,84,-99.99,,,-99.99,,2013-01-14 15:12:00,
2013-01-14 09:23:00,15.0,11.0,-100.00,WNW,300,0.0,1.0,84,-99.99,,,-99.99,,2013-01-14 15:23:00,
2013-01-14 09:33:00,16.0,11.0,-100.00,NNE,20,0.0,0.0,81,-99.99,,,-99.99,,2013-01-14 15:33:00,
2013-01-14 09:43:00,16.0,11.0,-100.00,NW,320,1.0,1.0,81,-99.99,,,-99.99,,2013-01-14 15:43:00,
2013-01-14 09:53:00,16.0,11.0,-100.00,NW,320,1.0,1.0,81,-99.99,,,-99.99,,2013-01-14 15:53:00,
2013-01-14 10:00:00,18.0,12.0,-100.00,NE,35,1.0,1.0,75,-99.99,,,-99.99,,2013-01-14 16:00:00,
2013-01-14 10:03:00,17.0,11.0,-100.00,NW,305,0.0,1.0,79,-99.99,,,-99.99,,2013-01-14 16:03:00,
2013-01-14 10:12:00,17.0,13.0,-100.00,North,0,0.0,1.0,81,-99.99,,,-99.99,,2013-01-14 16:12:00,
2013-01-14 10:23:00,17.0,13.0,-100.00,North,0,0.0,1.0,81,-99.99,,,-99.99,,2013-01-14 16:23:00,
2013-01-14 10:33:00,18.0,13.0,-100.00,NNE,25,0.0,1.0,79,-99.99,,,-99.99,,2013-01-14 16:33:00,
2013-01-14 10:43:00,18.0,12.0,-100.00,NE,35,1.0,1.0,75,-99.99,,,-99.99,,2013-01-14 16:43:00,
2013-01-14 10:53:00,18.0,12.0,-100.00,NE,35,1.0,1.0,75,-99.99,,,-99.99,,2013-01-14 16:53:00,
2013-01-14 11:12:00,20.0,13.0,-100.00,NW,305,1.0,1.0,76,-99.99,,,-99.99,,2013-01-14 17:12:00,
2013-01-14 11:23:00,20.0,13.0,-100.00,NW,305,1.0,1.0,76,-99.99,,,-99.99,,2013-01-14 17:23:00,
2013-01-14 11:33:00,20.0,13.0,-100.00,NNE,15,0.0,1.0,73,-99.99,,,-99.99,,2013-01-14 17:33:00,
2013-01-14 11:43:00,21.0,14.0,-100.00,NE,35,1.0,1.0,73,-99.99,,,-99.99,,2013-01-14 17:43:00,
2013-01-14 11:53:00,21.0,14.0,-100.00,NE,35,1.0,1.0,73,-99.99,,,-99.99,,2013-01-14 17:53:00,
2013-01-14 12:03:00,21.0,13.0,-100.00,WNW,285,0.0,1.0,70,-99.99,,,-99.99,,2013-01-14 18:03:00,
2013-01-14 12:13:00,21.0,13.0,-100.00,ESE,105,1.0,1.0,70,-99.99,,,-99.99,,2013-01-14 18:13:00,
2013-01-14 12:23:00,21.0,13.0,-100.00,ESE,105,1.0,1.0,70,-99.99,,,-99.99,,2013-01-14 18:23:00,
2013-01-14 12:33:00,22.0,12.0,-100.00,ENE,65,1.0,1.0,66,-99.99,,,-99.99,,2013-01-14 18:33:00,
2013-01-14 12:43:00,24.0,14.0,-100.00,SSE,150,1.0,1.0,66,-99.99,,,-99.99,,2013-01-14 18:43:00,
2013-01-14 12:52:00,24.0,14.0,-100.00,SSE,150,1.0,1.0,66,-99.99,,,-99.99,,2013-01-14 18:52:00,
2013-01-14 13:03:00,22.0,13.0,-100.00,North,355,0.0,1.0,67,-99.99,,,-99.99,,2013-01-14 19:03:00,
2013-01-14 13:12:00,23.0,14.0,-100.00,North,355,1.0,1.0,69,-99.99,,,-99.99,,2013-01-14 19:12:00,
2013-01-14 13:22:00,23.0,14.0,-100.00,North,355,1.0,1.0,69,-99.99,,,-99.99,,2013-01-14 19:22:00,
2013-01-14 13:33:00,24.0,15.0,-100.00,East,80,1.0,1.0,69,-99.99,,,-99.99,,2013-01-14 19:33:00,
2013-01-14 13:43:00,24.0,14.0,-100.00,East,100,1.0,1.0,66,-99.99,,,-99.99,,2013-01-14 19:43:00,
2013-01-14 13:52:00,24.0,14.0,-100.00,East,100,1.0,1.0,66,-99.99,,,-99.99,,2013-01-14 19:52:00,
2013-01-14 14:03:00,24.0,14.0,-100.00,ENE,65,1.0,1.0,65,-99.99,,,-99.99,,2013-01-14 20:03:00,
2013-01-14 14:13:00,25.0,15.0,-100.00,WNW,290,1.0,1.0,67,-99.99,,,-99.99,,2013-01-14 20:13:00,
2013-01-14 14:22:00,25.0,15.0,-100.00,WNW,290,1.0,1.0,67,-99.99,,,-99.99,,2013-01-14 20:22:00,
2013-01-14 14:33:00,25.0,14.0,-100.00,ESE,120,1.0,1.0,62,-99.99,,,-99.99,,2013-01-14 20:33:00,
2013-01-14 14:43:00,25.0,14.0,-100.00,North,5,1.0,1.0,62,-99.99,,,-99.99,,2013-01-14 20:43:00,
2013-01-14 14:53:00,25.0,14.0,-100.00,North,5,1.0,1.0,62,-99.99,,,-99.99,,2013-01-14 20:53:00,
2013-01-14 15:03:00,26.0,16.0,-100.00,North,355,1.0,1.0,63,-99.99,,,-99.99,,2013-01-14 21:03:00,
2013-01-14 15:12:00,27.0,16.0,-100.00,NE,40,1.0,1.0,63,-99.99,,,-99.99,,2013-01-14 21:12:00,
2013-01-14 15:23:00,27.0,16.0,-100.00,NE,40,1.0,1.0,63,-99.99,,,-99.99,,2013-01-14 21:23:00,
2013-01-14 15:30:00,27.0,15.0,-100.00,North,0,1.0,1.0,61,-99.99,,,-99.99,,2013-01-14 21:30:00,
2013-01-14 15:33:00,26.0,16.0,-100.00,West,270,0.0,1.0,63,-99.99,,,-99.99,,2013-01-14 21:33:00,
2013-01-14 15:43:00,27.0,17.0,-100.00,ENE,60,1.0,1.0,64,-99.99,,,-99.99,,2013-01-14 21:43:00,
2013-01-14 15:53:00,27.0,17.0,-100.00,ENE,60,1.0,1.0,64,-99.99,,,-99.99,,2013-01-14 21:53:00,
2013-01-14 16:03:00,27.0,16.0,-100.00,NNE,30,1.0,1.0,61,-99.99,,,-99.99,,2013-01-14 22:03:00,
2013-01-14 16:12:00,27.0,15.0,-100.00,North,0,1.0,1.0,61,-99.99,,,-99.99,,2013-01-14 22:12:00,
2013-01-14 16:23:00,27.0,15.0,-100.00,North,0,1.0,1.0,61,-99.99,,,-99.99,,2013-01-14 22:23:00,
2013-01-14 20:00:00,-999.0,-99.9,-100.00,North,5,0.0,0.0,-999,-99.99,,,-99.99,,2013-01-15 02:00:00,
2013-01-14 20:20:00,18.0,16.0,-100.00,NE,40,0.0,1.0,90,-99.99,,,-99.99,,2013-01-15 02:20:00,
2013-01-14 21:00:00,17.0,14.0,-100.00,North,350,0.0,1.0,89,-99.99,,,-99.99,,2013-01-15 03:00:00,
2013-01-14 21:33:00,18.0,15.0,-100.00,NNE,20,0.0,1.0,90,-99.99,,,-99.99,,2013-01-15 03:33:00,
2013-01-14 21:42:00,17.0,14.0,-100.00,North,350,0.0,1.0,89,-99.99,,,-99.99,,2013-01-15 03:42:00,
2013-01-14 21:52:00,17.0,14.0,-100.00,North,350,0.0,1.0,89,-99.99,,,-99.99,,2013-01-15 03:52:00,
2013-01-14 22:12:00,17.0,14.0,-100.00,North,0,0.0,1.0,89,-99.99,,,-99.99,,2013-01-15 04:12:00,
2013-01-14 22:22:00,17.0,14.0,-100.00,North,0,0.0,1.0,89,-99.99,,,-99.99,,2013-01-15 04:22:00,
2013-01-14 22:32:00,16.0,14.0,-100.00,North,355,0.0,1.0,89,-99.99,,,-99.99,,2013-01-15 04:32:00,
2013-01-14 22:42:00,15.0,13.0,-100.00,NNW,330,0.0,0.0,89,-99.99,,,-99.99,,2013-01-15 04:42:00,
2013-01-14 22:52:00,15.0,13.0,-100.00,NNW,330,0.0,0.0,89,-99.99,,,-99.99,,2013-01-15 04:52:00,
2013-01-14 23:03:00,16.0,13.0,-100.00,NE,35,1.0,1.0,88,-99.99,,,-99.99,,2013-01-15 05:03:00,
2013-01-14 23:12:00,16.0,12.0,-100.00,SW,235,0.0,1.0,87,-99.99,,,-99.99,,2013-01-15 05:12:00,
2013-01-14 23:22:00,16.0,12.0,-100.00,SW,235,0.0,1.0,87,-99.99,,,-99.99,,2013-01-15 05:22:00,
2013-01-14 23:33:00,15.0,11.0,-100.00,SSE,155,0.0,1.0,87,-99.99,,,-99.99,,2013-01-15 05:33:00,
2013-01-14 23:42:00,15.0,11.0,-100.00,North,10,0.0,1.0,87,-99.99,,,-99.99,,2013-01-15 05:42:00,
2013-01-14 23:52:00,15.0,11.0,-100.00,North,10,0.0,1.0,87,-99.99,,,-99.99,,2013-01-15 05:52:00,